Theta_e
341 343 345 346 347 346 346 346 346 345 345 344 344 344 343 343 342 341 337 335 333 332 333 333 333 334 334 333 331 329 328 328 329 329 329 330 330 330 330 330 330 329 328 327 326 325 325 325 325 324 325 329
337 340 343 343 343 344 344 345 345 345 345 344 343 343 341 340 339 340 337 335 333 332 331 330 330 332 332 331 329 327 326 326 326 326 327 327 328 329 329 328 328 327 326 325 324 324 324 324 324 324 325 328
344 334 339 340 340 341 342 343 343 343 341 341 340 338 336 336 335 334 334 335 334 332 330 329 329 329 330 331 330 328 327 327 327 325 326 327 328 328 328 327 326 325 324 323 323 322 322 323 322 323 325 328
347 334 331 336 337 338 340 340 340 338 336 335 332 331 332 331 334 330 332 326 331 329 329 327 326 329 329 330 330 329 328 327 326 325 325 326 326 326 325 324 323 323 322 322 321 320 321 321 322 325 327 327
347 343 329 332 331 333 335 335 335 334 327 326 325 328 327 331 339 337 334 333 332 326 330 322 323 327 326 327 327 326 325 324 323 323 323 323 323 322 320 317 317 317 318 318 318 318 318 318 324 325 326 326
346 344 338 346 345 345 338 330 327 335 340 333 338 325 335 340 338 338 337 334 331 330 329 327 321 323 325 325 325 323 323 323 322 322 321 320 319 318 316 316 316 315 313 313 315 315 315 320 322 323 324 325
345 343 344 345 345 343 334 336 339 341 339 341 340 341 340 337 339 338 336 335 334 331 324 328 321 322 324 325 324 323 322 322 322 321 319 318 316 315 314 315 315 315 315 314 312 313 316 317 318 320 321 322
344 344 344 343 344 342 341 339 340 339 340 340 340 340 340 339 339 337 336 326 324 326 330 326 320 320 321 322 321 320 320 320 320 319 317 315 315 314 314 314 312 313 312 312 313 314 314 314 315 316 318 319
341 342 342 344 343 342 342 341 339 339 339 339 340 340 339 339 338 337 334 332 331 333 331 327 325 323 322 322 320 317 318 315 315 314 315 315 314 314 314 313 312 311 310 310 310 310 311 312 313 314 315 317
340 341 341 340 341 342 341 340 340 338 337 337 339 339 339 339 337 336 333 334 334 333 332 331 327 325 321 319 319 317 316 316 317 316 316 315 314 312 312 310 310 309 308 307 307 308 308 309 311 312 312 314
335 338 341 341 342 340 339 340 338 337 338 337 337 337 337 337 336 336 333 332 334 332 332 331 328 323 319 318 318 318 317 317 317 315 314 313 312 311 310 308 308 307 306 306 306 306 306 306 308 309 310 311
332 334 338 340 339 339 338 338 338 338 338 338 337 336 336 336 337 335 333 333 332 332 331 330 328 323 319 319 319 319 319 317 315 313 312 312 311 309 308 307 306 305 304 304 304 304 304 305 305 306 308 308
331 332 334 338 339 340 334 339 339 340 338 338 337 336 336 337 336 336 334 333 332 332 330 330 326 323 320 321 321 320 318 317 314 312 311 311 310 309 307 306 305 303 302 302 302 302 302 303 303 304 305 306
333 333 333 335 337 339 338 339 338 339 338 340 338 336 336 336 336 336 335 334 334 332 330 329 327 324 322 321 321 319 318 316 313 311 310 310 309 308 306 304 303 302 302 301 301 300 300 300 301 302 302 303
332 334 333 333 335 337 337 338 339 338 338 338 338 337 336 337 337 336 336 333 334 333 330 328 325 325 323 320 319 319 318 316 313 311 309 309 307 306 304 302 302 301 300 300 299 299 299 299 299 299 300 301
331 331 333 334 334 335 337 338 338 338 338 335 336 336 336 337 337 336 336 335 333 332 329 327 326 326 324 321 320 319 317 314 313 312 309 308 307 306 304 302 301 300 299 298 298 299 298 298 298 298 298 298
329 331 331 332 332 334 336 336 336 335 335 337 337 336 335 336 336 336 336 336 333 333 332 328 326 325 325 323 321 319 317 315 313 310 308 306 305 303 303 302 300 300 299 298 297 298 297 297 297 298 298 298
326 328 330 331 332 332 333 335 334 333 334 335 335 335 335 335 336 336 336 336 334 333 331 329 327 326 324 324 322 319 316 312 310 308 306 304 302 301 300 299 299 297 297 296 297 297 297 297 297 297 297 297
323 327 328 329 330 331 331 329 331 333 333 333 333 334 335 334 333 334 334 334 332 331 331 329 327 326 324 323 320 317 315 311 309 308 305 303 300 299 299 299 298 298 296 296 296 296 296 296 296 296 296 297
321 323 327 327 324 329 331 329 329 330 330 331 332 332 333 333 333 333 333 332 331 329 326 326 326 325 323 320 318 316 316 311 308 306 305 303 300 297 296 297 297 298 297 296 296 297 296 296 296 295 296 296
320 321 324 326 326 327 327 329 329 327 328 328 329 331 331 331 330 332 333 332 331 328 324 321 320 322 321 319 317 316 313 310 309 305 304 302 299 298 296 297 297 297 296 295 295 296 296 296 296 295 295 295
320 321 323 324 323 322 325 326 328 326 324 325 326 327 328 328 326 327 329 329 328 328 324 320 318 318 319 318 316 314 311 310 308 306 303 300 299 297 296 296 296 295 295 295 295 294 295 295 294 294 294 295
319 319 321 321 318 320 323 322 322 323 321 322 323 325 326 326 326 325 325 324 325 325 322 320 318 317 318 317 316 314 311 309 307 305 303 299 297 297 297 296 296 295 295 295 294 293 292 293 293 293 294 294
316 316 317 315 313 314 315 318 318 318 319 318 321 323 323 324 326 324 324 324 323 322 321 320 318 317 316 315 314 312 309 306 305 303 300 297 296 296 297 297 296 295 294 293 293 292 292 292 292 292 293 293
315 313 314 314 313 314 314 314 315 314 314 316 317 318 320 322 322 324 324 322 320 318 315 317 317 316 315 315 313 311 309 307 306 303 299 297 297 295 294 294 296 296 294 291 290 291 291 290 291 292 291 290
315 316 315 315 314 314 313 312 313 313 311 312 312 313 316 318 319 323 322 320 321 317 315 313 313 314 314 313 312 311 310 308 304 301 298 296 294 296 293 293 296 295 294 292 290 288 288 289 290 290 289 289
315 316 316 316 315 312 309 308 308 313 310 307 308 308 311 314 316 318 317 318 317 315 315 313 312 311 312 313 312 310 307 304 301 298 296 296 295 294 294 294 296 296 299 294 293 293 290 287 287 288 287 288
316 317 316 311 310 309 309 307 304 303 302 302 304 306 306 309 312 314 315 314 314 314 313 312 312 311 312 313 312 309 305 302 300 298 296 296 296 295 293 294 295 299 299 297 293 291 293 290 291 286 286 286
313 309 308 304 303 303 304 304 305 303 302 303 303 303 303 307 309 311 311 310 311 311 311 311 310 310 310 309 309 309 306 303 299 297 296 297 296 295 295 294 295 296 298 299 301 297 291 290 290 292 290 286
310 310 308 304 303 303 305 304 303 303 304 302 302 303 303 302 304 307 308 309 310 309 309 310 310 310 309 309 309 309 306 303 300 298 298 298 298 297 299 297 295 295 296 299 298 299 298 299 296 294 288 288
309 308 308 307 308 309 308 307 306 309 310 306 306 304 300 301 301 304 305 306 308 307 306 307 308 309 309 309 308 308 306 302 300 299 300 300 300 300 300 300 296 296 295 294 295 297 297 296 294 296 289 288
Wind_Speed
7 6 7 8 8 9 9 9 9 10 10 11 12 12 13 12 11 12 13 14 14 15 15 15 16 16 16 17 17 18 18 18 18 18 18 18 18 18 18 18 17 17 17 16 15 15 14 12 10 11 10 10
5 6 5 6 8 8 9 9 9 9 9 10 10 10 11 10 10 11 13 13 14 15 15 15 15 16 16 17 18 18 18 19 19 19 19 18 18 18 18 18 18 17 17 16 15 14 13 11 11 11 11 10
5 5 5 7 7 7 8 8 8 8 7 9 10 11 10 10 11 11 12 12 12 12 12 12 13 15 16 17 18 18 18 19 19 19 18 19 19 19 19 18 18 17 16 15 15 14 12 10 11 11 10 10
8 5 5 5 7 7 9 9 8 8 9 10 11 11 11 11 12 12 11 11 11 11 11 11 13 13 15 17 17 18 18 18 18 18 18 18 18 19 19 18 18 17 16 15 14 13 10 10 10 9 9 10
7 6 6 6 6 7 8 9 9 9 10 11 10 11 11 10 10 10 10 10 10 10 10 10 12 14 15 17 17 17 17 18 18 18 18 18 18 19 19 18 18 17 15 15 14 13 10 9 9 8 9 11
6 6 6 9 7 6 7 8 10 9 8 8 8 10 10 8 8 8 8 9 10 10 11 11 11 13 15 16 16 17 18 18 17 17 18 18 17 16 13 11 9 10 13 14 13 11 10 9 8 8 8 10
7 7 7 8 7 5 6 7 7 7 8 8 9 9 8 7 7 7 8 7 7 8 10 11 11 12 13 15 15 16 17 17 17 17 17 17 16 13 12 9 7 6 6 7 9 9 8 8 7 7 8 8
7 7 7 6 5 6 5 5 5 7 7 7 9 8 7 7 8 8 8 10 14 11 9 9 12 13 13 13 14 15 14 16 16 17 16 13 11 9 7 7 7 6 6 6 6 7 7 7 7 7 7 8
6 7 6 5 7 7 6 5 5 5 6 7 9 8 7 8 8 7 7 8 8 7 8 9 9 9 8 9 9 9 10 9 9 9 8 7 7 7 7 7 6 6 7 6 6 7 6 7 7 7 7 7
5 5 7 7 7 8 7 7 5 5 6 7 7 7 7 8 9 8 8 6 8 8 8 8 7 7 7 7 7 7 7 7 7 7 6 6 7 7 6 7 6 7 7 7 6 6 6 6 7 7 7 7
4 5 7 7 5 7 7 6 7 6 6 7 8 8 8 8 8 8 7 8 8 8 8 8 6 7 7 7 7 6 6 7 7 6 6 6 7 7 7 8 7 7 7 7 7 7 7 7 6 6 6 6
3 4 5 7 6 7 7 7 6 7 6 7 7 7 7 8 7 7 9 9 8 6 7 8 6 6 7 7 6 6 6 7 6 6 6 7 7 7 7 8 7 7 7 7 7 8 7 7 6 6 6 7
4 3 4 6 7 8 6 7 7 7 7 8 7 6 8 7 8 8 7 9 9 9 9 7 6 6 6 7 7 7 6 7 7 6 6 6 7 6 7 7 7 7 7 6 6 7 7 7 7 7 7 7
9 6 5 6 7 6 6 7 7 7 8 8 9 8 8 8 8 8 8 8 8 11 10 8 7 6 7 7 7 6 7 7 7 7 6 6 6 6 7 7 6 6 7 6 6 7 7 7 7 6 6 6
12 11 6 5 6 6 7 7 6 7 7 6 8 10 11 10 10 9 8 9 9 7 9 8 7 6 7 7 8 7 7 6 7 7 6 6 7 6 7 7 6 6 7 6 7 7 7 7 7 7 6 6
13 12 11 10 8 7 7 8 8 7 8 7 6 9 10 11 11 9 9 10 7 9 10 8 8 6 6 7 8 8 7 7 7 7 7 7 6 6 7 8 6 6 7 6 6 6 7 7 7 7 6 7
13 13 11 10 9 7 6 8 7 8 7 8 8 8 7 9 11 10 9 9 12 9 8 9 9 9 6 6 9 8 10 10 8 7 8 7 5 6 7 8 7 6 6 7 6 6 7 7 7 6 6 6
10 11 10 10 9 8 7 8 7 6 6 7 7 8 10 9 10 11 10 10 9 10 11 10 9 9 6 5 5 8 8 8 7 7 8 9 7 6 7 8 7 7 7 6 6 6 6 7 6 6 6 5
8 9 9 11 9 8 7 5 6 7 6 6 7 9 10 10 9 7 8 9 8 7 8 10 8 9 9 8 7 7 6 7 6 7 8 8 9 6 6 7 6 6 7 8 7 7 6 7 6 6 6 5
8 9 9 11 8 8 8 7 6 6 6 6 7 8 8 10 10 9 9 9 9 10 6 6 10 11 12 11 9 8 5 7 8 7 6 6 8 8 7 8 7 6 7 7 7 6 6 6 5 5 5 5
9 10 10 10 9 9 7 8 7 6 6 6 6 7 8 8 8 9 9 10 9 9 8 4 4 7 13 11 10 9 7 7 7 8 7 7 6 6 8 8 9 7 7 8 7 6 6 5 5 5 5 5
9 10 11 9 5 4 7 8 7 6 5 5 6 6 7 8 7 7 8 8 9 8 7 6 6 5 9 10 10 10 10 8 8 7 7 8 5 5 7 8 9 9 8 8 7 6 6 5 5 5 4 4
9 5 8 6 4 4 7 6 6 6 5 5 6 7 8 9 9 8 8 8 8 7 9 8 8 9 8 8 9 8 9 9 9 8 7 7 7 5 5 8 8 9 9 8 7 7 7 6 5 4 3 3
8 7 8 7 4 5 5 4 6 6 6 5 6 7 8 9 10 10 9 9 9 8 10 11 11 12 10 8 9 9 10 9 10 12 9 7 9 8 6 6 7 9 11 10 9 8 7 6 5 5 4 4
10 8 7 6 8 8 7 4 4 4 3 4 4 4 6 8 7 10 11 10 10 10 8 7 8 12 11 10 9 10 9 11 12 11 9 9 7 11 10 7 8 8 11 12 9 7 7 6 5 5 4 5
12 10 9 8 9 6 7 5 5 5 3 4 2 3 4 4 4 8 9 9 10 9 9 8 8 8 9 9 8 10 11 10 10 10 8 9 8 5 10 9 10 9 11 8 10 10 8 6 5 4 5 4
10 12 10 9 7 6 4 1 1 2 3 2 3 2 2 3 4 5 7 7 8 8 9 9 8 8 8 9 10 8 7 8 10 11 12 11 11 9 5 7 8 11 5 8 9 8 8 6 5 3 3 3
13 12 8 4 4 4 3 4 3 3 3 2 2 5 2 2 4 6 6 7 7 7 8 9 10 8 9 9 9 9 11 10 8 8 9 8 10 11 11 9 9 5 4 7 11 9 4 6 4 3 6 5
9 7 6 5 5 5 5 4 4 4 3 4 3 3 4 5 3 4 5 6 6 7 9 8 8 10 8 9 8 10 11 12 12 11 13 11 10 12 13 11 9 5 4 8 1 5 7 4 3 4 6 8
10 10 10 9 8 8 7 7 8 9 10 8 7 7 3 1 3 4 4 6 7 6 6 7 9 9 10 10 7 9 10 11 11 13 12 12 11 12 10 12 10 7 5 3 1 3 3 1 1 6 8 8
10 10 10 11 10 9 8 8 6 5 6 7 6 5 5 4 3 4 5 6 7 7 7 7 8 9 9 12 10 10 10 9 12 12 13 11 10 10 9 9 10 11 8 3 2 2 1 2 2 3 11 7
Wind_Direction
155 166 160 156 150 146 142 142 140 138 136 134 131 126 120 108 104 100 100 99 98 98 99 99 100 102 103 103 102 100 98 96 94 93 92 89 89 89 86 81 76 72 68 64 60 56 51 44 33 29 56 71
151 152 155 144 145 147 147 145 143 140 141 137 123 110 105 104 101 99 100 100 99 98 98 98 98 98 98 99 98 97 95 94 93 91 91 90 89 87 84 80 76 72 68 64 59 55 48 42 42 38 57 67
144 148 151 155 147 143 144 142 138 135 125 119 111 107 111 106 92 88 91 91 92 91 92 95 96 99 100 100 100 97 96 94 92 91 90 89 89 88 84 81 77 73 68 63 58 52 45 41 45 47 61 60
168 139 142 149 148 144 145 144 136 124 117 108 106 109 115 111 109 107 99 99 95 90 90 92 97 97 101 102 101 99 97 95 94 92 91 91 90 87 84 78 74 70 67 62 57 51 42 43 49 62 61 64
177 150 144 136 118 135 139 136 127 116 112 113 112 119 124 140 131 126 122 120 108 103 93 88 94 98 99 102 101 101 100 99 98 94 93 92 90 88 84 78 71 65 62 59 55 49 40 46 61 53 59 71
176 160 192 176 160 162 147 130 130 135 136 133 130 131 146 145 138 139 132 118 116 108 107 96 94 100 103 103 102 103 102 100 98 95 94 94 92 91 87 89 86 77 64 56 53 45 38 55 55 47 51 69
180 159 198 188 180 152 160 145 151 149 145 153 151 159 155 150 152 144 135 130 103 102 88 96 96 98 103 104 103 104 103 99 97 96 96 95 93 90 91 86 84 78 78 71 55 53 51 56 49 45 45 52
194 189 195 193 181 169 157 157 154 151 159 159 166 168 163 166 145 146 130 96 110 118 117 99 90 92 95 97 99 104 101 97 96 99 98 98 101 98 89 86 84 81 74 69 60 58 58 56 49 44 44 51
203 201 201 202 200 185 168 164 153 157 165 167 172 172 171 160 148 146 132 141 140 143 132 129 126 126 125 124 121 122 114 116 120 116 113 108 98 89 90 87 83 83 79 71 67 62 57 57 52 51 47 48
202 216 206 206 206 193 193 192 168 161 163 165 171 170 169 160 159 143 153 154 151 150 148 148 146 138 135 133 131 133 126 127 123 116 106 98 92 89 86 82 80 76 78 80 75 69 59 56 55 52 47 48
203 212 218 202 189 183 190 186 176 171 165 164 165 171 167 168 165 156 161 159 154 154 159 158 147 142 139 141 138 135 126 122 119 109 103 95 94 93 92 89 85 82 79 80 82 77 67 62 62 57 51 47
181 212 226 215 181 194 183 175 181 166 167 151 161 167 171 178 167 163 166 163 156 150 160 163 149 144 147 143 137 135 126 127 116 108 103 103 101 102 97 97 93 90 85 83 83 84 77 72 70 62 56 51
175 190 224 212 203 195 162 194 194 175 169 173 169 170 173 177 175 178 167 169 165 165 167 159 149 152 153 145 138 137 132 127 123 114 115 116 114 109 108 102 95 92 88 89 86 87 86 80 74 67 66 58
222 199 205 220 210 208 175 198 203 195 177 195 188 173 177 177 184 192 175 176 174 174 168 162 149 159 157 150 137 140 137 138 131 125 122 120 117 116 112 102 96 99 95 90 91 89 89 84 82 81 75 65
228 225 219 217 221 215 205 204 196 191 186 197 192 180 177 184 189 193 183 187 181 158 157 165 162 161 161 153 144 141 137 137 134 129 124 126 124 123 115 108 104 107 102 94 88 88 89 90 91 85 78 73
227 228 230 227 228 225 219 213 206 204 204 183 187 178 180 186 195 194 191 187 180 168 160 162 170 166 167 161 148 142 137 132 136 131 122 113 111 118 114 112 110 107 103 97 93 94 90 90 88 81 81 78
225 228 229 225 228 221 217 211 201 205 197 195 191 181 182 188 193 191 192 185 181 168 166 164 163 171 171 159 152 144 138 135 136 132 123 115 115 113 113 108 107 108 105 102 100 93 91 90 84 84 86 83
224 226 225 219 220 215 211 210 199 198 197 186 190 185 188 191 193 194 192 184 183 176 171 167 166 167 160 132 119 131 132 130 139 138 132 130 119 116 117 117 121 124 113 106 102 94 92 88 87 89 85 82
224 225 224 216 214 213 204 205 194 191 194 188 190 191 194 188 187 194 186 178 173 169 173 168 164 169 167 146 130 132 138 130 134 139 137 136 123 123 121 119 123 124 115 110 103 97 96 92 94 93 92 90
224 227 224 220 210 209 210 197 200 185 188 188 190 185 184 186 182 189 175 176 177 171 174 175 167 170 164 147 141 143 142 139 146 141 136 132 130 130 131 130 126 122 113 104 101 99 98 100 105 102 100 95
225 224 218 217 208 202 202 209 199 190 185 186 194 188 182 184 181 180 177 177 181 176 164 150 150 154 157 147 146 146 148 144 140 145 138 134 130 131 137 132 128 122 114 107 103 101 101 101 106 102 99 100
216 217 211 205 201 173 199 209 200 190 183 192 194 190 180 176 172 171 171 160 172 175 160 142 140 129 151 153 146 145 154 150 140 147 144 136 129 133 136 135 137 129 118 110 110 104 100 97 91 92 97 94
205 199 197 191 182 197 197 204 195 185 184 195 188 191 179 170 173 174 173 160 161 149 156 150 147 147 156 154 149 133 145 146 146 149 151 144 129 127 135 137 134 130 121 112 108 103 95 88 85 87 87 96
186 188 194 184 179 196 200 195 186 177 183 188 197 189 179 179 179 176 175 171 166 157 163 163 161 158 154 160 152 147 146 152 157 155 143 144 135 124 113 120 129 131 122 109 105 102 91 85 86 86 90 87
181 181 179 185 196 196 190 186 173 158 159 184 192 203 193 182 172 173 172 169 166 165 158 149 151 163 159 160 159 158 161 157 156 152 147 143 140 136 130 135 148 147 130 124 115 108 105 97 90 86 85 84
191 190 190 186 190 180 182 176 178 170 175 183 174 206 213 193 171 165 170 172 173 153 158 157 154 158 163 163 160 160 159 153 143 140 137 136 128 145 143 149 166 160 138 140 146 143 136 120 108 88 83 78
192 194 192 189 179 167 155 131 32 142 141 130 155 192 211 183 185 164 153 161 169 158 156 161 158 163 167 166 163 147 132 133 144 153 152 160 150 148 157 152 171 174 197 152 151 138 133 152 149 143 115 93
197 194 176 130 117 119 121 160 135 94 95 122 151 191 227 198 189 168 155 165 170 165 161 159 163 164 168 165 155 149 150 155 158 157 162 166 159 149 148 171 185 196 235 167 148 158 187 156 173 163 201 157
174 134 129 120 90 95 102 103 153 136 166 192 182 165 204 194 182 173 159 169 178 163 164 167 157 162 164 161 157 159 159 163 167 167 172 171 163 173 161 167 174 196 223 189 231 143 124 129 214 227 143 143
160 175 163 158 159 168 182 178 179 190 184 179 186 190 154 140 174 182 168 173 179 172 156 163 168 168 160 164 169 171 165 164 161 169 177 185 177 177 180 161 163 174 209 237 165 308 347 8 290 160 150 164
169 177 180 180 185 183 186 180 189 183 174 172 177 156 163 175 173 179 175 174 176 174 163 158 166 170 169 167 175 178 174 167 171 173 180 181 188 180 172 165 166 172 178 179 238 219 313 2 327 139 146 194